STARLINK-32717 (62491 NORAD) Tracking and Keplerian Element Data

This shows tracking and keplerian element data for the satellite.

Feedback or suggestion? Click here.




ElementValue
Catalog62491
NameSTARLINK-32717
Epoch Orbit569
Epoch Day34.83335648
Epoch Year2025
RAAN25.7351
Inclination43.0006
Eccentricity0.0001619
Argument of Perigee273.1165
Mean Anonmoly56.4111
Mean Motion15.40696078
Decay Rate-0.00018933
L11 62491U 25003E 25034.83335648 -.00018933 00000+0 -44715-3 0 9995
L22 62491 43.0006 25.7351 0001619 273.1165 56.4111 15.40696078 5696



Live tracking and technical data element details for STARLINK-32717 (NORAD 62491). STARLINK-32717 can be tracked NOW for your location showing map with azimuth and elevation plus other details from your city location.







IsCatalogInMostPopularTable: catalog: 62491, numindb: 13
Update: records affected: 1



GetName: 62491 STARLINK-32717

Hit Count: updated at: Sat, 24 May 2025 16:01:20 GMT